Showing default

FLOCK 4BE 10, 60503

Orbit data source: Space-Track

FLOCK 4BE 10, 60503 is a payload satellite owned by Planet (US) in SSO that was launched on Fri, 16 Aug 2024 UTC via an FALCON 9 launch vehicle from the Air Force Western Test Range (AFWTR). Payload-class satellites include a variety of spacecraft equipped with specific instruments for various scientific and technological missions. These include communications satellites like Starlink; space stations such as the ISS; scientific satellites like the Hubble; Earth observation satellites from companies like Planet Labs, Umbra, and HawkEye 360; GPS; miniature CubeSats for education and research; and military/defense satellites.

Not visible in the next 10 days
Identifier
60503, 2024-149AM
Orbit
SSO
Country
Flag of USUS
Related business
Manufacturer
Planet
Mission
Operational Commercial Imaging
Bus & Motor
CUBESAT 3U, Unknown motor
Mass
5.7 kg wet, 5.7 kg dry
Launch date (UTC)
2024-08-16 (1 year ago)
Launch vehicle
FALCON 9
Launch site
Air Force Western Test Range (AFWTR)
Object type
Payload
Rocket body
Debris
Shape & HBR
Box + 2 Pan, 1.0 m
Radar Cross Section
0.072 m², Medium (>0.1 m² and < 1m²)

Expand to show TLE details & history
Last TLE update: 14 hours ago

TLE from 14 hours ago
0 FLOCK 4BE 10
1 60503U 24149AM  25353.47304463  .00071537  00000-0  15264-2 0  9996
2 60503  97.3939  71.7419 0004124 202.0673 158.0398 15.44623201 74706
Epoch: 2025-12-19T11:21Z
TLE epoch observation values (Epoch: 2025-12-19T11:21:11.056Z)
Latitude
-0.00005°
Longitude
173.13214°
Altitude
438.215 km
Speed
7.647 km/s
True Right ascension
04h 46m 58s
True Declination
0° 00' 00"
Sunlit
Object was in full shadow at epoch
Visualization orbit readout
Latitude
Unknown
Longitude
Unknown
Altitude
Unknown
Speed
Unknown
Apparent Right ascension
Unknown
Apparent Declination
Unknown
Sunlit
N/A
Visualization observer readout
Local Sidereal Time
00:13:47
Azimuth
Unknown
Elevation
Unknown
Doppler factor
Unknown
Orbital elements
Apogee altitude
432.225 km
Perigee altitude
426.611 km
Semi-major axis
6,807.555 km
Eccentricity
0.00041
Inclination
97.3939°
RAAN
71.7419°
Arg. of periapsis
202.0673°
True anomaly
158.05746°
Mean anomaly
158.0398°
Eccentric anomaly
158.04863°
Mean motion
3.86417 °/min
Orbital period
93.16 mins
BSTAR
0.0015264
Loading maneuver chart data...
Computing Atmospheric mass density...
Loading historical data...
Loading historical data...
Loading historical data...
Loading historical data...
Loading historical data...
Loading historical data...
Loading historical data...

Documentation

Showing up to 5 results
|